Погода в Полтаве

Погода в Полтаве : погода сейчас, прогноз погоды и архив. Всё, что Вы хотите узнать о погоде в Полтаве!

Поиск расширенной информации на нашем сайте:

Полезная информация: кровельные работы в хабаровске, mail bk.

Другие новости

Новости СМИ2

Главная страница сайта

Новости сайта

02.10.2013

Напоминаем, что на нашем новом сайте вы можете получить высокодетализированные прогнозы погоды по пунктам России, СНГ и мира (включающие важные для авиации метеовеличины, такие как направление и скорость ветра, видимость, явления погоды, количество и форма облачности, нижняя и верхняя граница облачности), а также ознакомиться с разнообразными материалами по авиационной метеорологии и подборкой полезных ссылок на эту тему.

Сайт Метеоцентр.Азия посвящён разработке технологий оптимизации авиаметеорологического обслуживания, включая проектирование и перспективное создание нескольких автоматизированных авиаметеорологических систем:
- система выпуска высокодетальных прогностических карт явлений погоды для нижнего воздушного пространства по России и ближнему зарубежью;
- система верификации прогнозов TAF (выпускаемых синоптиками официальных АМСГ РФ и ближнего зарубежья) и AUTOTAF (выпускаемых сайтом Метеоцентр.Азия) - выявление ошибок, онлайн-сопоставление с фактической погодой METAR, автоматическое внесение коррективов в прогнозы при резком отклонении фактической погоды от прогноза, подсчёт оправдываемости прогнозов по элементам и в целом;
- система обработки, анализа и отображения авиаметеорологической информации для применения провайдерами метеорологической информации.

Рекомендуем: мебель для детей хабаровск

Погода в Полтаве - сегодня

Время (UTC), дата Ветер
(°,м/с) 
Видим.   Явления Облачность Т
(°С)
Тd
(°С)
f(%) Тe
(°С)
Pmin
(гПа)
dP
(гПа)
Po
(мм)
O2
(г/м3)
Тmin Tmax R s Состояние
почвы
00 21.01.17 270 (З) 4000 м  в посл. час морось{снег}  10/10 300 м 
[St]
-4.3 -5.2 93 -7  1023.9  -1.1  753  309      0.2     
03 21.01.17 270 (З) 4000 м  дымка  10/10 300 м 
[St]
-4.2 -5.1 93 -6  1022.4  -1.5  751  308           
06 21.01.17 270 (З) 4000 м  слаб. снег  10/9 300 м средняя 
[Frnb|As op]
-3.8 -4.6 94 -5  1021.6  -0.8  751  307  -4.9    0.4  24  равномерный
мокрый или
старый снег
100% 
09 21.01.17 250 (З) 4000 м  слаб. снег  10/9 300 м средняя 
[Frnb|As op]
-2.8 -3.8 93 -4  1021.2  -0.3  751  306           
12 21.01.17 270 (З) 4000 м  дымка{снег}  10/10 300 м 
[St]
-1.4 -2.8 90 -3  1019.4  -1.6  749  304      0.2     
15 21.01.17 260 (З) 4000 м  дымка{снег}  10/10 300 м 
[St]
-0.6 -2.1 90 -1  1019.7  0.3  750  303           
18 21.01.17 270 (З) 4000 м  в посл. час морось{снег}  10/10 300 м 
[St]
-0.2 -1.1 94 -3  1021.3  1.6  751  303    +0.4  0.4     
21 21.01.17 290 (З) 4000 м  дымка  8/8 600 м 
[Sc]
+0.2 -0.9 92 -3  1023.3  752  303           
00 22.01.17 330 (СЗ) 4000 м  дымка  ясно 
-2.5 -4.4 87 -6  1026.3  2.7  754  307           
03 22.01.17 320 (СЗ) 10 км    ясно 
-6 -8.3 84 -9  1029.5  2.9  757  313           
06 22.01.17 300 (СЗ) 10 км    3/0 верхняя 
[Ci fib]
-7.8 -9.6 87 -11  1031.5  1.8  758  315  -8.1      24  равномерный
мокрый или
старый снег
100% 
09 22.01.17 280 (З) 20000 м    ясно 
-4.9 -7 85 -7  1032.4  1.1  759  312           
12 22.01.17 270 (З) 20000 м    ясно 
-2.6 -6.3 76 -5  1031.3  -0.9  758  309           
15 22.01.17 270 (З) 10 км    10/10 600 м 
[Sc]
-5 -6 93 -8  1031  -0.4  758  312           
18 22.01.17 260 (З) 10 км  позёмок  4/4 1000 м 
[Sc]
-4.2 -5.1 93 -7  1030.3  -0.7  757  310    -2.2       
21 22.01.17 250 (З) 10 км    ясно 
-4.5 -5.4 93 -7  1029.6  -0.7  757  311           
00 23.01.17 240 (ЮЗ) 10 км    ясно 
-4.7 -6.4 88 -7  1028.7  -0.9  756  311           
03 23.01.17 250 (З) 10 км    ясно 
-4.9 -6.2 91 -9  1028.2  -0.5  756  311           
06 23.01.17 230 (ЮЗ) 10 км    8/0 верхняя 
[Ci fib]
-5.4 -6.8 90 -8  1028.2  756  311  -5.5      24  равномерный
мокрый или
старый снег
100% 
09 23.01.17 240 (ЮЗ) 10 км    8/0 верхняя 
[Ci fib]
-3.2 -5.6 83 -7  1028.1  0.1  756  309           
12 23.01.17 230 (ЮЗ) 10 км    3/0 верхняя 
[Ci fib]
-1 -4.9 75 -4  1026.9  -1.1  755  306           
15 23.01.17 230 (ЮЗ) 10 км    8/0 верхняя 
[Cc]
-2.2 -5 81 -6  1026.2  -0.7  754  307           
18 23.01.17 230 (ЮЗ) 10 км    ясно 
-3.6 -5.8 85 -7  1025.2  -1.1  754  308    -0.6       
21 23.01.17 230 (ЮЗ) 10 км    ясно 
-3.8 -5.3 89 -7  1024.3  -0.9  753  308           
00 24.01.17 220 (ЮЗ) 10 км    ясно 
-5 -5.7 95 -7  1022.9  -1.5  752  309           
Время (UTC), дата Ветер
(°,м/с) 
Видим.   Явления Облачность Т
(°С)
Тd
(°С)
f(%) Тe
(°С)
Pmin
(гПа)
dP
(гПа)
Po
(мм)
O2
(г/м3)
Тmin Tmax R s Состояние
почвы

Для получения пояснительной информации подведите курсор к названию столбца.

ПОГОДА в Полтаве - архив

Всё, что Вы хотите узнать о погоде в Полтаве - удобно и подробно!

Выберите нужную дату (начиная с 1 января 2015* года) и нажмите кнопку "Найти".
Будут отображены архивные сводки погоды по пункту Полтава, начиная с указанной даты.


Отображать данные в формате CSV (для использования в таблицах Excel)


Внимание! Наш архив погоды предназначен исключительно для личного некоммерческого использования в познавательных целях. Если Вам необходимы официальные справки о состоянии погоды (для производственных, юридических, коммерческих и т.п. целей), обращайтесь в органы Росгидромета.

*Примечание: данная дата относится к архиву по метеостанциям СССР (Россия, СНГ, Балтия).
Архив по метеостанциям Зарубежной Европы и Азии (кроме Китая) хранится 10 дней, по другим регионам земного шара (Китай, Африка, Америка, Австралия, Океания) - 1 день.

Полтава - район местоположения метеостанции


Название, широта, долгота, высота метеостанции:
Полтава 49.6°ш. 34.6°д. 160 м над ур. моря [Украина]

Дополнительная информация

В oтличие oт бoльшинства пoгoдных сайтoв мы публикуем пoдрoбную метеoинфoрмацию в детальнoм прoфессиoнальнoм фoрмате.

Характеристики температуры и влажнoсти вoздуха измеряются на высoте 2 м в тени вдали oт зданий и деревьев.
Скoрoсть ветра измеряется на высoте 10 м (на урoвне рoста челoвека скoрoсть ветра ниже в 1.5-2 раза). Если метеoстанция нахoдится в гoрoде или в лесу, тo скoрoсть ветра занижена на 2-4 м/с пo сравнению с oткрытым местoм. Скoрoсть ветра над акватoриями крупных рек и oзёр, а также на вершинах хoлмoв на 2-5 м/с выше, чем в oбычных услoвиях.
Атмoсфернoе давление в разных тoчках местнoсти мoжет значительнo oтличаться oт давления на метеoстанции, в зависимoсти oт услoвий рельефа (при пoдъёме на 10 м давление пoнижается примернo на 1 мм рт.ст.).